Weather reports worldwide

Advertisment
Arroyo Del Ojanco, Spain (8352): temperature & dewpoint: 07.07.2020 06:00:00 - 13.07.2020 06:00:00 (CEST)Arroyo Del Ojanco, Spain (8352): wind direction: 07.07.2020 06:00:00 - 13.07.2020 06:00:00 (CEST)Arroyo Del Ojanco, Spain (8352): reduced air pressure: 07.07.2020 06:00:00 - 13.07.2020 06:00:00 (CEST)Arroyo Del Ojanco, Spain (8352): precipitation: 07.07.2020 06:00:00 - 13.07.2020 06:00:00 (CEST)
Date & Time tt [°C] td [°C] dd ppp [hPa] rr [mm]
13.07.2020 06:00:00 - - - - -
13.07.2020 05:00:00 22,5 16,0 NNE 1009,3 0,0
13.07.2020 04:00:00 24,1 16,6 S 1009,1 0,0
13.07.2020 03:00:00 24,6 17,1 SW 1008,7 0,0
13.07.2020 02:00:00 24,9 16,9 NE 1009,0 -
13.07.2020 01:00:00 26,1 16,9 NNE 1008,3 0,0
13.07.2020 00:00:00 27,1 17,5 NE 1007,8 0,0
12.07.2020 23:00:00 28,7 18,5 SE 1006,8 0,0
12.07.2020 22:00:00 29,1 18,8 SE 1006,1 0,0
12.07.2020 21:00:00 30,9 19,3 SE 1005,1 0,0
12.07.2020 20:00:00 32,0 20,3 E 1004,3 -
12.07.2020 19:00:00 31,3 20,9 ENE 1005,2 0,0
12.07.2020 18:00:00 32,1 20,7 NE 1005,3 0,0
12.07.2020 17:00:00 30,9 20,5 ENE 1005,8 0,0
12.07.2020 16:00:00 25,0 18,7 E 1008,5 3,5
12.07.2020 15:00:00 33,2 19,6 SW 1006,5 0,2
12.07.2020 14:00:00 30,0 18,1 SW 1007,7 -
12.07.2020 13:00:00 32,8 18,9 WSW 1006,5 0,0
12.07.2020 12:00:00 31,1 18,1 W 1006,8 0,0
12.07.2020 11:00:00 30,0 18,1 W 1007,1 0,0
12.07.2020 10:00:00 28,5 18,0 NNE 1007,1 0,0
12.07.2020 09:00:00 26,4 17,5 ENE 1007,5 0,0
12.07.2020 08:00:00 24,7 15,6 S 1007,4 -
12.07.2020 07:00:00 26,3 15,6 S 1007,1 0,0
12.07.2020 06:00:00 26,1 15,8 WSW 1006,0 0,0
12.07.2020 05:00:00 28,2 15,5 ENE 1004,9 0,0
12.07.2020 04:00:00 28,6 16,8 E 1005,3 0,0
12.07.2020 03:00:00 27,8 17,4 E 1006,8 0,0
12.07.2020 02:00:00 28,5 17,4 SW 1007,3 -
12.07.2020 01:00:00 28,5 16,4 S 1006,9 0,0
12.07.2020 00:00:00 29,6 16,4 NNE 1006,1 0,0
11.07.2020 23:00:00 31,6 17,1 S 1005,2 0,0
11.07.2020 22:00:00 32,2 17,7 SE 1003,9 0,0
11.07.2020 21:00:00 33,3 18,2 SE 1003,5 0,0
11.07.2020 20:00:00 36,3 18,8 SE 1002,6 -
11.07.2020 19:00:00 37,3 19,3 NE 1002,3 0,0
11.07.2020 18:00:00 37,4 19,3 NE 1003,0 0,0
11.07.2020 17:00:00 37,4 19,3 NNE 1003,2 0,0
11.07.2020 16:00:00 37,0 19,5 NE 1003,6 0,0
11.07.2020 15:00:00 36,7 19,6 NNE 1004,0 0,0
11.07.2020 14:00:00 35,9 18,9 NE 1004,6 -
11.07.2020 13:00:00 35,7 19,2 NE 1004,8 0,0
11.07.2020 12:00:00 33,4 19,1 NNE 1005,3 0,0
11.07.2020 11:00:00 29,5 19,8 N 1006,4 0,0
11.07.2020 10:00:00 28,9 19,5 ESE 1006,7 0,0
11.07.2020 09:00:00 26,1 18,5 S 1007,2 0,0
11.07.2020 08:00:00 23,3 16,8 E 1007,1 -
11.07.2020 07:00:00 22,4 15,3 S 1007,0 0,0
11.07.2020 06:00:00 23,2 15,5 SW 1006,6 0,0
11.07.2020 05:00:00 24,0 15,3 E 1006,3 0,0
11.07.2020 04:00:00 25,1 15,4 SSE 1005,8 0,0
11.07.2020 03:00:00 25,9 15,3 SSE 1005,9 0,0
11.07.2020 02:00:00 27,2 16,8 NNE 1005,7 -
11.07.2020 01:00:00 28,3 16,9 NNE 1005,5 0,0
11.07.2020 00:00:00 30,1 17,5 ESE 1004,8 0,0
10.07.2020 23:00:00 31,1 15,5 E 1004,2 0,0
10.07.2020 22:00:00 31,9 15,4 E 1003,6 0,0
10.07.2020 21:00:00 34,9 17,1 NW 1002,3 0,0
10.07.2020 20:00:00 35,8 17,1 NNW 1002,1 -
10.07.2020 19:00:00 36,2 16,9 NNW 1001,9 0,0
10.07.2020 18:00:00 35,8 16,6 SSW 1002,3 0,0
10.07.2020 17:00:00 35,3 16,6 NNE 1002,9 0,0
10.07.2020 16:00:00 35,5 17,7 NW 1003,2 0,0
10.07.2020 15:00:00 33,5 16,8 NE 1004,3 0,0
10.07.2020 14:00:00 32,8 18,5 WSW 1004,9 -
10.07.2020 13:00:00 30,9 18,3 WNW 1005,7 0,0
10.07.2020 12:00:00 28,9 18,7 WSW 1006,4 0,0
10.07.2020 11:00:00 26,8 17,5 WSW 1007,0 0,0
10.07.2020 10:00:00 25,0 17,0 W 1007,6 0,0
10.07.2020 09:00:00 23,2 16,2 NNE 1007,5 0,0
10.07.2020 08:00:00 20,9 14,5 SW 1007,8 -
10.07.2020 07:00:00 20,0 13,0 NE 1007,7 0,0
10.07.2020 06:00:00 20,1 12,8 E 1007,4 0,0
10.07.2020 05:00:00 21,5 13,9 NNE 1007,2 0,0
10.07.2020 04:00:00 21,8 13,9 S 1007,6 0,0
10.07.2020 03:00:00 22,6 13,7 E 1007,7 0,0
10.07.2020 02:00:00 24,3 14,4 N 1007,4 -
10.07.2020 01:00:00 26,0 14,8 W 1007,0 0,0
10.07.2020 00:00:00 27,3 15,6 NNE 1006,3 0,0
09.07.2020 23:00:00 27,4 15,7 E 1006,2 0,0
09.07.2020 22:00:00 28,3 15,9 NNE 1005,4 0,0
09.07.2020 21:00:00 31,6 15,5 N 1004,5 0,0
09.07.2020 20:00:00 34,7 15,1 WNW 1002,6 -
09.07.2020 19:00:00 35,7 15,4 W 1002,3 0,0
09.07.2020 18:00:00 35,1 14,9 W 1003,1 0,0
09.07.2020 17:00:00 35,3 15,1 WSW 1003,7 0,0
09.07.2020 16:00:00 34,9 17,1 WNW 1004,3 0,0
09.07.2020 15:00:00 34,4 18,0 WSW 1004,8 0,0
09.07.2020 14:00:00 32,9 17,1 W 1005,8 -
09.07.2020 13:00:00 32,3 17,8 W 1006,5 0,0
09.07.2020 12:00:00 30,4 17,1 NNE 1007,0 0,0
09.07.2020 11:00:00 28,0 16,6 NNE 1007,8 0,0
09.07.2020 10:00:00 26,3 16,8 N 1008,5 0,0
09.07.2020 09:00:00 23,9 15,9 NNE 1008,9 0,0
09.07.2020 08:00:00 21,3 13,9 NNE 1009,0 -
09.07.2020 07:00:00 21,4 13,4 NE 1008,6 0,0
09.07.2020 06:00:00 22,5 13,3 SSE 1008,2 0,0
09.07.2020 05:00:00 23,4 13,0 SW 1008,5 0,0
09.07.2020 04:00:00 25,0 13,9 SSE 1008,6 0,0
09.07.2020 03:00:00 - - - - -
09.07.2020 02:00:00 - - - - -
09.07.2020 01:00:00 - - - - -
09.07.2020 00:00:00 29,2 14,6 SW 1006,6 0,0
08.07.2020 23:00:00 30,8 14,4 SSE 1005,1 0,0
08.07.2020 22:00:00 31,5 14,6 SSE 1003,7 0,0
08.07.2020 21:00:00 33,2 15,7 SSW 1004,2 0,0
08.07.2020 20:00:00 35,6 16,8 SW 1002,9 -
08.07.2020 19:00:00 36,8 17,9 WSW 1002,3 0,0
08.07.2020 18:00:00 36,6 18,7 S 1002,2 0,0
08.07.2020 17:00:00 37,2 18,2 SSE 1001,8 0,0
08.07.2020 16:00:00 39,4 19,1 S 1002,0 0,0
08.07.2020 15:00:00 38,1 18,5 SW 1002,1 0,0
08.07.2020 14:00:00 38,8 19,6 WSW 1002,3 -
08.07.2020 13:00:00 37,7 20,5 W 1002,8 0,0
08.07.2020 12:00:00 34,7 20,3 SW 1003,7 0,0
08.07.2020 11:00:00 32,1 18,7 NNW 1004,7 0,0
08.07.2020 10:00:00 30,0 17,8 WSW 1005,3 0,0
08.07.2020 09:00:00 25,5 15,8 NW 1005,5 0,0
08.07.2020 08:00:00 23,3 13,8 ENE 1006,5 -
08.07.2020 07:00:00 25,6 13,5 SE 1006,9 0,0
08.07.2020 06:00:00 24,1 12,4 NE 1006,2 0,0
08.07.2020 05:00:00 24,9 12,1 NNE 1006,3 0,0
08.07.2020 04:00:00 26,6 12,6 SE 1006,4 0,0
08.07.2020 03:00:00 28,1 13,7 NE 1006,6 0,0
08.07.2020 02:00:00 29,2 13,9 NE 1006,9 -
08.07.2020 01:00:00 30,5 14,1 NNW 1006,9 0,0
08.07.2020 00:00:00 33,9 15,3 S 1006,2 0,0
07.07.2020 23:00:00 34,3 15,7 S 1005,7 0,0
07.07.2020 22:00:00 35,0 16,3 S 1004,9 0,0
07.07.2020 21:00:00 36,6 16,7 SW 1004,2 0,0
07.07.2020 20:00:00 38,0 17,4 SW 1003,6 -
07.07.2020 19:00:00 38,8 18,1 SW 1003,4 0,0
07.07.2020 18:00:00 39,0 17,7 SW 1003,7 0,0
07.07.2020 17:00:00 39,3 18,0 WSW 1004,1 0,0
07.07.2020 16:00:00 38,6 17,9 WSW 1004,5 0,0
07.07.2020 15:00:00 38,2 18,1 SW 1005,0 0,0
07.07.2020 14:00:00 36,7 17,8 SW 1006,0 -
07.07.2020 13:00:00 35,0 18,5 W 1006,4 0,0
07.07.2020 12:00:00 33,1 18,1 W 1007,0 0,0
07.07.2020 11:00:00 31,2 17,5 SW 1007,5 0,0
07.07.2020 10:00:00 29,7 17,5 W 1007,8 0,0
07.07.2020 09:00:00 26,6 16,8 NNE 1008,3 0,0
07.07.2020 08:00:00 24,6 15,0 ESE 1008,2 -
07.07.2020 07:00:00 24,3 13,6 SSW 1008,3 0,0
07.07.2020 06:00:00 26,3 14,4 SSW 1007,7 0,0

tt = temperature
td = dewpoint
dd = wind direction
ppp = reduced air pressure
rr = precipitation

Next stations